Location: Wild Duck Observatory
(38.2456°N, 85.2898°W)
Time: 18:47:38
(UTC-04:00)

OTV 5 (USA 277) - Visible Passes

Search period start: 24 June 2018 00:00
Search period end: 04 July 2018 00:00
Orbit: 313 x 320 km, 54.5° (Epoch: 21 June)

Date Brightness Start Highest point End Pass type
(mag) Time Alt. Az. Time Alt. Az. Time Alt. Az.
26 Jun ? 00:43:18 10° N 00:43:24 10° N 00:43:24 10° N visible
27 Jun ? 00:56:45 10° NNW 00:56:47 10° NNW 00:56:47 10° NNW visible
28 Jun ? 23:51:40 10° N 23:52:54 15° NNE 23:52:54 15° NNE visible
30 Jun ? 00:05:31 10° NNW 00:06:27 18° NNW 00:06:27 18° NNW visible
30 Jun ? 22:46:54 10° N 22:47:56 12° NNE 22:48:58 10° NE visible
01 Jul ? 00:19:50 10° NW 00:20:03 12° NW 00:20:03 12° NW visible
01 Jul ? 23:00:18 10° NNW 23:02:35 24° NE 23:02:51 23° NE visible
02 Jul ? 23:14:24 10° NW 23:16:33 50° NNW 23:16:33 50° NNW visible
03 Jul ? 21:55:14 10° N 21:57:03 16° NNE 21:58:51 10° ENE visible
03 Jul ? 23:28:59 10° WNW 23:30:19 22° W 23:30:19 22° W visible
